Find Starlink 37792

NORAD ID: 69437 Int'l Des: 2026-126 Owner: SPXS Country: US Constellation: starlink operational
LEOCIRCULARRETROGRADE

現在のビュー

3D地球を読み込み中...

About Starlink 37792

Starlink 37792 (NORAD 69437) is a starlink constellation satellite launched Jun 7, 2026 by SPXS of US. It operates in LEO, CIRCULAR, RETROGRADE orbit with a mass of 575.00 kg.

次回通過

Passes for default location (London). Set your location on the main map for personalized predictions.

高度履歴

Loading altitude history...

軌道要素

1 69437U 26126T 26206.58616300 .00046634 00000-0 85318-3 0 9992
2 69437 97.2865 68.3469 0001374 74.8966 285.2437 15.49217962 8835
Epoch: Jul 25, 2026 • Age: 20 hours

現在のステータス

高度 420.8 km
遠地点 / 近地点 N/A
速度 7.66 km/s
衛星直下点 8.35°N, 29.84°W
打ち上げ日 Jun 7, 2026
運用期間 0.1 years
タイプ internet

技術仕様

分類 Payload
質量 575.00 kg
乾燥質量 530.00 kg
総質量 575.00 kg
長さ 0.30 m
直径 4.10 m
スパン 29.00 m
形状 Box + pan
製造者 SPXS
バスタイプ Starlink V2MO
フェーズステータス In Orbit
所有者/国 SPXS/US

Most Searched